GW2085 Weather Reports


Display with metric or nautical units.
time (UTC)temp
F
wind
direction
speed
MPH
gust
MPH
rain 1hr
in
rain 24hr
in
rain mn
in
humidity
%
barometer
mb
20260905103103 57 0 0.0 0.0 0.00 0.00 0.00 83 1012.6
20260905101602 57 0 0.0 1.0 0.00 0.00 0.00 83 1012.7
20260905094555 58 0 0.0 0.0 0.00 0.00 0.00 83 1012.7
20260905093101 58 0 0.0 1.0 0.00 0.00 0.00 83 1012.8
20260905091602 58 0 0.0 0.0 0.00 0.00 0.00 83 1012.8
20260905090054 58 0 0.0 0.0 0.00 0.00 0.00 84 1012.9
20260905084556 59 0 0.0 0.0 0.00 0.00 0.00 84 1013.1
20260905083057 59 0 0.0 0.0 0.00 0.00 0.00 83 1013.2
20260905081557 59 0 0.0 1.0 0.00 0.00 0.00 84 1013.3
20260905080054 59 0 0.0 0.0 0.00 0.00 0.00 85 1013.5
20260905074554 60 0 0.0 0.0 0.00 0.00 0.00 84 1013.8
20260905073059 60 0 0.0 0.0 0.00 0.00 0.00 83 1013.8
20260905071557 60 0 0.0 0.0 0.00 0.00 0.00 83 1013.8
20260905070055 61 0 0.0 0.0 0.00 0.00 0.00 83 1013.8
20260905064559 61 0 0.0 0.0 0.00 0.00 0.00 82 1013.9
20260905063057 61 0 0.0 0.0 0.00 0.00 0.00 82 1013.8
20260905061607 61 0 0.0 0.0 0.00 0.00 0.00 81 1013.6
20260905060100 62 0 0.0 0.0 0.00 0.00 0.00 80 1013.4
20260905054600 62 0 0.0 0.0 0.00 0.00 0.00 80 1013.6
20260905053057 62 0 0.0 0.0 0.00 0.00 0.00 80 1013.6
20260905051601 63 0 0.0 0.0 0.00 0.00 0.00 79 1013.5
20260905050054 63 0 0.0 0.0 0.00 0.00 0.00 78 1013.5
20260905044601 64 0 0.0 0.0 0.00 0.00 0.00 77 1013.6
20260905043100 64 0 0.0 0.0 0.00 0.00 0.00 76 1013.5
20260905041608 65 0 0.0 0.0 0.00 0.00 0.00 75 1013.3
20260905040105 66 0 0.0 0.0 0.00 0.00 0.00 74 1013.2
20260905034604 67 0 0.0 1.0 0.00 0.00 0.00 72 1013.1
20260905033108 67 0 0.0 0.0 0.00 0.00 0.00 69 1013.0
20260905031604 69 0 0.0 0.0 0.00 0.00 0.00 68 1012.8
20260905030109 70 0 0.0 2.0 0.00 0.00 0.00 66 1012.7
20260905024557 71 0 0.0 3.0 0.00 0.00 0.00 64 1012.4
20260905023056 72 0 0.0 4.0 0.00 0.00 0.00 62 1012.4
20260905021555 73 281 1.0 3.0 0.00 0.00 0.00 58 1012.5
20260905020111 75 258 0.0 3.0 0.00 0.00 0.00 53 1012.3
20260905014603 77 248 1.0 3.0 0.00 0.00 0.00 49 1012.2
20260905013108 80 261 1.0 3.0 0.00 0.00 0.00 41 1012.2
20260905011628 80 273 1.0 4.0 0.00 0.00 0.00 39 1012.3
20260905010104 81 0 0.0 5.0 0.00 0.00 0.00 38 1012.2
20260905004600 82 248 1.0 3.0 0.00 0.00 0.00 37 1012.3
20260905003053 82 249 1.0 5.0 0.00 0.00 0.00 33 1012.2
20260905001602 83 283 2.0 6.0 0.00 0.00 0.00 35 1012.2
20260905000059 83 245 2.0 5.0 0.00 0.00 0.00 35 1012.3
20260904234557 82 96 3.0 8.0 0.00 0.00 0.00 35 1012.3
20260904233100 83 210 3.0 7.0 0.00 0.00 0.00 35 1012.4
20260904231552 82 223 1.0 8.0 0.00 0.00 0.00 38 1012.2
20260904230058 82 174 2.0 10.0 0.00 0.00 0.00 40 1012.4
20260904224556 82 231 4.0 8.0 0.00 0.00 0.00 41 1012.5
20260904223101 84 261 2.0 7.0 0.00 0.00 0.00 42 1012.5
20260904221605 84 229 2.0 7.0 0.00 0.00 0.00 42 1012.7
20260904220108 84 217 3.0 7.0 0.00 0.00 0.00 43 1012.6
20260904214555 84 250 3.0 8.0 0.00 0.00 0.00 44 1012.5
20260904213057 84 264 2.0 9.0 0.00 0.00 0.00 43 1012.8
20260904211601 84 209 3.0 7.0 0.00 0.00 0.00 45 1012.7
20260904210054 85 170 2.0 7.0 0.00 0.00 0.00 43 1012.9
20260904204554 85 177 2.0 6.0 0.00 0.00 0.00 41 1012.8
20260904203058 85 223 2.0 7.0 0.00 0.00 0.00 41 1012.9
20260904201555 86 259 2.0 7.0 0.00 0.00 0.00 37 1013.0
20260904200053 85 207 2.0 9.0 0.00 0.00 0.00 34 1013.0
20260904194631 84 272 3.0 8.0 0.00 0.00 0.00 38 1013.0
20260904193056 84 106 3.0 6.0 0.00 0.00 0.00 40 1013.2
20260904191553 82 182 2.0 6.0 0.00 0.00 0.00 41 1013.4
20260904190053 80 240 3.0 8.0 0.00 0.00 0.00 41 1013.6
20260904184558 81 273 3.0 6.0 0.00 0.00 0.00 39 1013.8
20260904183112 80 272 2.0 6.0 0.00 0.00 0.00 45 1013.9
20260904181606 79 217 2.0 4.0 0.00 0.00 0.00 45 1014.1
20260904180100 77 46 1.0 5.0 0.00 0.00 0.00 52 1014.1
20260904174601 76 229 0.0 3.0 0.00 0.00 0.00 55 1014.2
20260904173104 75 245 1.0 5.0 0.00 0.00 0.00 57 1014.3
20260904171618 75 65 1.0 4.0 0.00 0.00 0.00 59 1014.3
20260904170057 73 0 2.0 4.0 0.00 0.00 0.00 63 1014.4
20260904164555 71 19 1.0 3.0 0.00 0.00 0.00 67 1014.3
20260904163058 70 209 1.0 5.0 0.00 0.00 0.00 69 1014.3
20260904161557 68 278 0.0 4.0 0.00 0.00 0.00 74 1014.1
20260904160056 66 317 0.0 3.0 0.00 0.00 0.00 77 1014.2
20260904154556 65 0 0.0 3.0 0.00 0.00 0.00 81 1013.8
20260904153100 63 43 2.0 4.0 0.00 0.00 0.00 83 1013.9
20260904151604 62 53 3.0 7.0 0.00 0.00 0.00 83 1013.8
20260904150055 62 44 1.0 6.0 0.00 0.00 0.00 85 1013.9
20260904144555 61 44 2.0 4.0 0.00 0.00 0.00 86 1013.8
20260904143133 61 0 1.0 5.0 0.00 0.00 0.00 87 1013.7
20260904141607 61 126 0.0 2.0 0.00 0.00 0.00 88 1013.6
20260904140055 61 41 1.0 3.0 0.00 0.00 0.00 88 1013.5
20260904134600 61 114 0.0 2.0 0.00 0.00 0.00 89 1013.3
20260904133100 61 0 0.0 1.0 0.00 0.00 0.00 89 1013.0
20260904131556 61 0 0.0 1.0 0.00 0.00 0.00 89 1013.0
20260904130054 61 0 0.0 1.0 0.00 0.00 0.00 89 1013.0
20260904124601 61 207 0.0 1.0 0.00 0.00 0.00 90 1012.8
20260904123057 60 0 0.0 1.0 0.00 0.00 0.00 90 1012.6
20260904121558 61 0 0.0 0.0 0.00 0.00 0.00 90 1012.7
20260904114605 60 0 0.0 0.0 0.00 0.00 0.00 91 1012.6
20260904113105 60 0 0.0 0.0 0.00 0.00 0.00 91 1012.5
20260904111607 59 0 0.0 0.0 0.00 0.00 0.00 91 1012.7
20260904110100 59 0 0.0 0.0 0.00 0.00 0.00 91 1012.7
20260904104601 59 0 0.0 0.0 0.00 0.00 0.00 91 1012.5